UAL4210 SKCC-SKBO

Flight info

Callsign UAL4210
Flight time 0h 47m
Altitude 38000
Route SKCC/21 N0456F380 TORA1M TORAT DCT DOPLO DOPL4E SKBO/14L
Aircraft B736/M-SDE2E3FGHIJ1RWXY/LB1

Departure

Time 2026-04-25 03:14
Airport Camilo Daza International Airport (SKCC)

Arrival

Time 2026-04-25 04:01
Airport El Dorado International Airport (SKBO)
Time Latitude Longitude Altitude Speed Heading
2026-04-25 02:41 7.92799 -72.50838 1023 ft 0 kts 197°
2026-04-25 03:03 7.92805 -72.50836 1023 ft 2 kts 197°
2026-04-25 03:03 7.92821 -72.50832 1023 ft 2 kts 196°
2026-04-25 03:03 7.92836 -72.50827 1023 ft 2 kts 196°
2026-04-25 03:04 7.92852 -72.50822 1022 ft 2 kts 223°
2026-04-25 03:04 7.92859 -72.50810 1022 ft 1 kts 275°
2026-04-25 03:04 7.92859 -72.50807 1022 ft 0 kts 278°
2026-04-25 03:06 7.92877 -72.50842 1031 ft 17 kts 311°
2026-04-25 03:06 7.92897 -72.50869 1022 ft 4 kts 303°
2026-04-25 03:07 7.92909 -72.50891 1022 ft 2 kts 291°
2026-04-25 03:07 7.92894 -72.50922 1023 ft 6 kts 220°
2026-04-25 03:07 7.92868 -72.50921 1023 ft 9 kts 166°
2026-04-25 03:07 7.92818 -72.50929 1023 ft 5 kts 228°
2026-04-25 03:08 7.92801 -72.50960 1022 ft 5 kts 242°
2026-04-25 03:08 7.92785 -72.50992 1022 ft 5 kts 242°
2026-04-25 03:08 7.92782 -72.51024 1024 ft 4 kts 292°
2026-04-25 03:08 7.92807 -72.51039 1022 ft 3 kts 332°
2026-04-25 03:09 7.92812 -72.51042 1023 ft 0 kts 332°
2026-04-25 03:09 7.92821 -72.51047 1023 ft 7 kts 332°
2026-04-25 03:10 7.92870 -72.51073 1024 ft 7 kts 332°
2026-04-25 03:10 7.92913 -72.51096 1025 ft 7 kts 336°
2026-04-25 03:10 7.92960 -72.51092 1021 ft 7 kts 14°
2026-04-25 03:10 7.93004 -72.51078 1023 ft 7 kts 17°
2026-04-25 03:11 7.93048 -72.51065 1023 ft 7 kts 17°
2026-04-25 03:11 7.93092 -72.51052 1022 ft 6 kts 17°
2026-04-25 03:11 7.93138 -72.51038 1020 ft 8 kts 17°
2026-04-25 03:11 7.93197 -72.51020 1019 ft 10 kts 17°
2026-04-25 03:12 7.93274 -72.50996 1017 ft 12 kts 17°
2026-04-25 03:12 7.93361 -72.50970 1015 ft 13 kts 17°
2026-04-25 03:12 7.93420 -72.50984 1014 ft 5 kts 353°
2026-04-25 03:12 7.93437 -72.50972 1014 ft 2 kts 69°
2026-04-25 03:13 7.93430 -72.50957 1014 ft 3 kts 129°
2026-04-25 03:13 7.93405 -72.50955 1014 ft 4 kts 195°
2026-04-25 03:13 7.93401 -72.50956 1015 ft 0 kts 195°
2026-04-25 03:13 7.93365 -72.50966 1015 ft 31 kts 195°
2026-04-25 03:14 7.92849 -72.51125 1025 ft 120 kts 197°
2026-04-25 03:14 7.91837 -72.51441 1238 ft 174 kts 197°
2026-04-25 03:14 7.90685 -72.51795 2319 ft 168 kts 195°
2026-04-25 03:14 7.89535 -72.52096 3229 ft 180 kts 195°
2026-04-25 03:15 7.88288 -72.52411 4129 ft 189 kts 197°
2026-04-25 03:15 7.87113 -72.53024 4981 ft 194 kts 222°
2026-04-25 03:15 7.86334 -72.54125 5927 ft 196 kts 249°
2026-04-25 03:15 7.86113 -72.55479 6787 ft 199 kts 274°
2026-04-25 03:16 7.86498 -72.56816 7563 ft 202 kts 300°
2026-04-25 03:16 7.87428 -72.57868 8357 ft 204 kts 326°
2026-04-25 03:16 7.88715 -72.58407 9134 ft 206 kts 351°
2026-04-25 03:16 7.90145 -72.58298 9858 ft 210 kts 18°
2026-04-25 03:17 7.91465 -72.57645 10530 ft 213 kts 30°
2026-04-25 03:17 7.92743 -72.56868 11189 ft 216 kts 31°
2026-04-25 03:17 7.94038 -72.56075 11853 ft 219 kts 30°
2026-04-25 03:17 7.95355 -72.55283 12519 ft 222 kts 30°
2026-04-25 03:18 7.96692 -72.54490 13185 ft 224 kts 29°
2026-04-25 03:18 7.97587 -72.53964 13641 ft 225 kts 29°
2026-04-25 03:18 7.98948 -72.53167 14243 ft 227 kts 29°
2026-04-25 03:18 8.00319 -72.52365 14832 ft 228 kts 29°
2026-04-25 03:19 8.01739 -72.51644 15351 ft 230 kts 13°
2026-04-25 03:19 8.03373 -72.51540 15567 ft 245 kts 356°
2026-04-25 03:19 8.05136 -72.51621 15732 ft 260 kts 356°
2026-04-25 03:19 8.06972 -72.51701 16069 ft 266 kts 357°
2026-04-25 03:20 8.08832 -72.51774 16455 ft 271 kts 357°
2026-04-25 03:20 8.10745 -72.51791 16840 ft 278 kts
2026-04-25 03:20 8.12496 -72.51000 17320 ft 281 kts 41°
2026-04-25 03:20 8.13533 -72.49349 17831 ft 284 kts 75°
2026-04-25 03:21 8.13526 -72.47371 18300 ft 287 kts 107°
2026-04-25 03:21 8.12459 -72.45689 18703 ft 289 kts 140°
2026-04-25 03:21 8.10685 -72.44840 19111 ft 289 kts 172°
2026-04-25 03:21 8.08710 -72.45067 19527 ft 290 kts 204°
2026-04-25 03:22 8.06890 -72.46029 19709 ft 303 kts 209°
2026-04-25 03:22 8.04973 -72.47037 19869 ft 317 kts 206°
2026-04-25 03:22 8.02936 -72.47958 20228 ft 323 kts 202°
2026-04-25 03:22 8.00840 -72.48769 20787 ft 323 kts 200°
2026-04-25 03:23 7.98685 -72.49533 21085 ft 338 kts 199°
2026-04-25 03:23 7.96400 -72.50319 21412 ft 352 kts 199°
2026-04-25 03:23 7.94174 -72.51376 21990 ft 357 kts 214°
2026-04-25 03:23 7.92260 -72.52961 22700 ft 357 kts 227°
2026-04-25 03:24 7.90718 -72.54938 23395 ft 360 kts 235°
2026-04-25 03:24 7.89298 -72.57033 23904 ft 365 kts 236°
2026-04-25 03:24 7.87882 -72.59156 24004 ft 365 kts 236°
2026-04-25 03:24 7.86445 -72.61272 24043 ft 366 kts 235°
2026-04-25 03:25 7.84983 -72.63391 24043 ft 368 kts 235°
2026-04-25 03:25 7.83512 -72.65508 24049 ft 368 kts 234°
2026-04-25 03:25 7.82038 -72.67615 24070 ft 368 kts 234°
2026-04-25 03:25 7.80575 -72.69698 24074 ft 368 kts 234°
2026-04-25 03:26 7.79095 -72.71807 24079 ft 368 kts 234°
2026-04-25 03:26 7.77612 -72.73920 24082 ft 369 kts 234°
2026-04-25 03:26 7.76133 -72.76029 24084 ft 368 kts 234°
2026-04-25 03:26 7.74655 -72.78137 24091 ft 368 kts 234°
2026-04-25 03:27 7.73178 -72.80244 24093 ft 368 kts 234°
2026-04-25 03:27 7.71670 -72.82396 24121 ft 385 kts 234°
2026-04-25 03:27 7.70088 -72.84653 24121 ft 403 kts 234°
2026-04-25 03:27 7.68381 -72.86961 24124 ft 418 kts 228°
2026-04-25 03:28 7.66180 -72.88936 24127 ft 427 kts 214°
2026-04-25 03:28 7.63573 -72.90358 24119 ft 429 kts 201°
2026-04-25 03:28 7.60728 -72.91313 24126 ft 432 kts 197°
2026-04-25 03:28 7.57848 -72.92195 24115 ft 433 kts 197°
2026-04-25 03:29 7.54961 -72.93059 24187 ft 436 kts 197°
2026-04-25 03:29 7.52064 -72.93932 24731 ft 429 kts 197°
2026-04-25 03:29 7.49257 -72.94788 25724 ft 414 kts 197°
2026-04-25 03:29 7.46496 -72.95641 26105 ft 419 kts 197°
2026-04-25 03:30 7.43706 -72.96511 26186 ft 430 kts 197°
2026-04-25 03:30 7.40837 -72.97411 26453 ft 434 kts 197°
2026-04-25 03:30 7.37970 -72.98313 27020 ft 431 kts 197°
2026-04-25 03:30 7.35070 -72.99227 27039 ft 442 kts 197°
2026-04-25 03:31 7.32108 -73.00160 27095 ft 450 kts 197°
2026-04-25 03:31 7.29098 -73.01109 27197 ft 455 kts 197°
2026-04-25 03:31 7.26068 -73.02064 27447 ft 457 kts 197°
2026-04-25 03:31 7.23035 -73.03019 27737 ft 457 kts 197°
2026-04-25 03:32 7.20004 -73.03973 28013 ft 457 kts 197°
2026-04-25 03:32 7.16962 -73.04931 28247 ft 459 kts 197°
2026-04-25 03:32 7.13906 -73.05893 28464 ft 461 kts 197°
2026-04-25 03:32 7.10838 -73.06858 28676 ft 462 kts 197°
2026-04-25 03:33 7.07766 -73.07825 28909 ft 463 kts 197°
2026-04-25 03:33 7.04728 -73.08781 29719 ft 449 kts 197°
2026-04-25 03:33 7.01793 -73.09705 30596 ft 435 kts 196°
2026-04-25 03:33 6.98922 -73.10609 31146 ft 431 kts 196°
2026-04-25 03:34 6.96048 -73.11512 31430 ft 434 kts 196°
2026-04-25 03:34 6.93154 -73.12421 31638 ft 438 kts 196°
2026-04-25 03:34 6.90241 -73.13336 31926 ft 439 kts 195°
2026-04-25 03:34 6.87363 -73.14240 32214 ft 440 kts 195°
2026-04-25 03:35 6.84438 -73.15159 32492 ft 440 kts 195°
2026-04-25 03:35 6.81473 -73.16092 32812 ft 441 kts 195°
2026-04-25 03:35 6.78578 -73.17001 33070 ft 442 kts 195°
2026-04-25 03:35 6.75641 -73.17924 33320 ft 443 kts 195°
2026-04-25 03:36 6.72689 -73.18851 33618 ft 443 kts 195°
2026-04-25 03:36 6.69753 -73.19773 34009 ft 441 kts 195°
2026-04-25 03:36 6.66837 -73.20690 34439 ft 437 kts 195°
2026-04-25 03:36 6.63938 -73.21601 34728 ft 437 kts 195°
2026-04-25 03:37 6.61025 -73.22516 34956 ft 439 kts 195°
2026-04-25 03:37 6.58110 -73.23430 35219 ft 439 kts 195°
2026-04-25 03:37 6.55193 -73.24346 35581 ft 438 kts 195°
2026-04-25 03:37 6.52280 -73.25260 35839 ft 440 kts 195°
2026-04-25 03:38 6.49355 -73.26178 36106 ft 441 kts 195°
2026-04-25 03:38 6.46427 -73.27096 36436 ft 440 kts 195°
2026-04-25 03:38 6.43513 -73.28011 36832 ft 438 kts 195°
2026-04-25 03:38 6.40608 -73.28923 37194 ft 438 kts 195°
2026-04-25 03:39 6.37693 -73.29837 37489 ft 438 kts 195°
2026-04-25 03:39 6.34782 -73.30750 37805 ft 438 kts 195°
2026-04-25 03:39 6.31871 -73.31663 38117 ft 438 kts 195°
2026-04-25 03:39 6.28951 -73.32616 38125 ft 443 kts 200°
2026-04-25 03:40 6.23688 -73.35837 38182 ft 446 kts 219°
2026-04-25 03:40 6.19141 -73.40000 37795 ft 448 kts 220°
2026-04-25 03:41 6.16857 -73.42119 37415 ft 447 kts 220°
2026-04-25 03:41 6.14571 -73.44230 37043 ft 446 kts 219°
2026-04-25 03:41 6.12280 -73.46334 36651 ft 447 kts 219°
2026-04-25 03:41 6.09978 -73.48436 36254 ft 448 kts 219°
2026-04-25 03:42 6.07667 -73.50540 35836 ft 449 kts 219°
2026-04-25 03:42 6.05348 -73.52647 35405 ft 450 kts 219°
2026-04-25 03:42 6.03020 -73.54759 34995 ft 450 kts 219°
2026-04-25 03:42 6.00693 -73.56869 34587 ft 450 kts 219°
2026-04-25 03:43 5.98366 -73.58980 34219 ft 451 kts 219°
2026-04-25 03:43 5.96040 -73.61090 33766 ft 451 kts 219°
2026-04-25 03:43 5.93708 -73.63204 33312 ft 452 kts 219°
2026-04-25 03:43 5.91372 -73.65323 32844 ft 452 kts 219°
2026-04-25 03:44 5.89035 -73.67441 32416 ft 453 kts 220°
2026-04-25 03:44 5.86687 -73.69570 31977 ft 455 kts 220°
2026-04-25 03:44 5.84337 -73.71701 31590 ft 456 kts 220°
2026-04-25 03:44 5.81957 -73.73858 31176 ft 464 kts 220°
2026-04-25 03:45 5.79574 -73.76017 30771 ft 468 kts 220°
2026-04-25 03:45 5.77158 -73.78208 30361 ft 468 kts 221°
2026-04-25 03:45 5.74743 -73.80397 29862 ft 468 kts 221°
2026-04-25 03:45 5.72323 -73.82592 29390 ft 468 kts 221°
2026-04-25 03:46 5.69902 -73.84776 28955 ft 468 kts 220°
2026-04-25 03:46 5.67352 -73.86808 28478 ft 468 kts 216°
2026-04-25 03:46 5.64712 -73.88724 28004 ft 469 kts 214°
2026-04-25 03:46 5.62037 -73.90601 27478 ft 466 kts 214°
2026-04-25 03:47 5.59409 -73.92436 26965 ft 454 kts 214°
2026-04-25 03:47 5.56852 -73.94237 26434 ft 444 kts 215°
2026-04-25 03:47 5.54357 -73.96012 25977 ft 435 kts 215°
2026-04-25 03:47 5.51922 -73.97759 25496 ft 427 kts 216°
2026-04-25 03:48 5.49524 -73.99487 25020 ft 420 kts 216°
2026-04-25 03:48 5.47173 -74.01187 24555 ft 414 kts 216°
2026-04-25 03:48 5.44845 -74.02870 24098 ft 409 kts 216°
2026-04-25 03:48 5.42555 -74.04527 23640 ft 403 kts 216°
2026-04-25 03:49 5.40295 -74.06162 23217 ft 397 kts 216°
2026-04-25 03:49 5.38066 -74.07774 22738 ft 392 kts 216°
2026-04-25 03:49 5.35867 -74.09364 22282 ft 387 kts 216°
2026-04-25 03:49 5.33697 -74.10932 21836 ft 383 kts 216°
2026-04-25 03:50 5.31550 -74.12483 21405 ft 379 kts 217°
2026-04-25 03:50 5.29419 -74.14023 20975 ft 375 kts 217°
2026-04-25 03:50 5.27312 -74.15546 20580 ft 372 kts 217°
2026-04-25 03:50 5.25222 -74.17056 20163 ft 369 kts 217°
2026-04-25 03:51 5.23151 -74.18552 19751 ft 365 kts 217°
2026-04-25 03:51 5.21095 -74.20037 19341 ft 362 kts 217°
2026-04-25 03:51 5.19086 -74.21489 18951 ft 359 kts 217°
2026-04-25 03:51 5.17064 -74.22949 18526 ft 357 kts 217°
2026-04-25 03:52 5.15060 -74.24396 18094 ft 354 kts 217°
2026-04-25 03:52 5.13072 -74.25832 17692 ft 351 kts 217°
2026-04-25 03:52 5.11098 -74.27258 17263 ft 348 kts 217°
2026-04-25 03:52 5.09138 -74.28674 16836 ft 346 kts 217°
2026-04-25 03:53 5.07202 -74.30071 16396 ft 339 kts 217°
2026-04-25 03:53 5.05302 -74.31443 15966 ft 333 kts 217°
2026-04-25 03:53 5.03439 -74.32788 15538 ft 327 kts 216°
2026-04-25 03:53 5.01609 -74.34110 15182 ft 320 kts 217°
2026-04-25 03:54 4.99822 -74.35400 14847 ft 313 kts 216°
2026-04-25 03:54 4.98071 -74.36663 14547 ft 306 kts 216°
2026-04-25 03:54 4.96370 -74.37889 14231 ft 296 kts 217°
2026-04-25 03:54 4.94715 -74.39067 13868 ft 287 kts 213°
2026-04-25 03:55 4.92866 -74.39731 13495 ft 283 kts 186°
2026-04-25 03:55 4.90944 -74.39515 13188 ft 278 kts 161°
2026-04-25 03:55 4.89280 -74.38577 12868 ft 273 kts 140°
2026-04-25 03:55 4.88068 -74.37156 12594 ft 265 kts 126°
2026-04-25 03:56 4.87007 -74.35663 12306 ft 261 kts 125°
2026-04-25 03:56 4.85969 -74.34190 11999 ft 257 kts 125°
2026-04-25 03:56 4.84943 -74.32744 11768 ft 250 kts 125°
2026-04-25 03:56 4.83941 -74.31382 11544 ft 241 kts 127°
2026-04-25 03:57 4.82922 -74.30085 11309 ft 231 kts 128°
2026-04-25 03:57 4.81943 -74.28848 11130 ft 222 kts 127°
2026-04-25 03:57 4.81003 -74.27655 10942 ft 214 kts 127°
2026-04-25 03:57 4.80097 -74.26502 10786 ft 208 kts 127°
2026-04-25 03:58 4.79226 -74.25406 10592 ft 193 kts 128°
2026-04-25 03:58 4.78408 -74.24394 10404 ft 183 kts 127°
2026-04-25 03:58 4.77638 -74.23399 10263 ft 178 kts 126°
2026-04-25 03:58 4.76890 -74.22426 10094 ft 174 kts 126°
2026-04-25 03:59 4.76157 -74.21471 9950 ft 172 kts 127°
2026-04-25 03:59 4.75430 -74.20524 9696 ft 169 kts 127°
2026-04-25 03:59 4.74725 -74.19607 9503 ft 163 kts 127°
2026-04-25 03:59 4.74035 -74.18709 9262 ft 166 kts 128°
2026-04-25 04:00 4.73314 -74.17779 9051 ft 168 kts 129°
2026-04-25 04:00 4.72592 -74.16852 8787 ft 169 kts 129°
2026-04-25 04:00 4.71883 -74.15926 8505 ft 166 kts 129°
2026-04-25 04:00 4.71215 -74.15030 8360 ft 157 kts 128°
2026-04-25 04:01 4.70624 -74.14259 8361 ft 114 kts 128°
2026-04-25 04:01 4.70274 -74.13797 8358 ft 52 kts 127°
2026-04-25 04:01 4.70138 -74.13620 8359 ft 19 kts 127°
2026-04-25 04:01 4.70050 -74.13505 8359 ft 22 kts 128°
2026-04-25 04:02 4.69966 -74.13393 8361 ft 14 kts 127°
2026-04-25 04:02 4.69907 -74.13342 8361 ft 13 kts 150°
2026-04-25 04:02 4.69809 -74.13312 8360 ft 17 kts 172°
2026-04-25 04:02 4.69686 -74.13297 8361 ft 18 kts 171°
2026-04-25 04:03 4.69593 -74.13279 8361 ft 9 kts 168°
2026-04-25 04:03 4.69541 -74.13272 8361 ft 4 kts 192°
2026-04-25 04:03 4.69518 -74.13284 8361 ft 4 kts 212°
2026-04-25 04:03 4.69491 -74.13302 8361 ft 5 kts 214°
2026-04-25 04:04 4.69463 -74.13322 8361 ft 2 kts 215°
2026-04-25 04:04 4.69447 -74.13326 8361 ft 3 kts 176°
2026-04-25 04:04 4.69439 -74.13317 8361 ft 2 kts 127°
2026-04-25 04:04 4.69431 -74.13305 8361 ft 2 kts 126°
2026-04-25 04:05 4.69427 -74.13301 8361 ft 0 kts 125°